"Pseudo-MPEC" for C1CNHF5

Created 2026 Mar 19 7:35:08 UT using Find_Orb

Click here for an explanation of pseudo-MPECs

 
 Astrometry: 
     C1CNHF5*1C2026 02 26.40421711 03 23.281+17 56 32.35   ~2QAZ 21.40GVNEOCPV00
     C1CNHF5 1C2026 02 26.40987711 03 22.504+17 56 07.44   ~2QAZ 22.75GVNEOCPV00
     C1CNHF5 1C2026 02 26.41546611 03 21.676+17 55 42.49   ~2QAZ 22.83GVNEOCPV00
     C1CNHF5 1C2026 02 26.42105111 03 20.941+17 55 17.94   ~2QAZ 21.69GVNEOCPV00
     C1CNHF5 0C2026 02 26.45873011 03 15.820+17 52 31.30   ~2QDZ 21.9 RVNEOCP291
     C1CNHF5 0C2026 02 26.47104011 03 14.210+17 51 36.80   ~2QDZ 21.3 RVNEOCP291
     C1CNHF5 0C2026 02 26.48326011 03 12.620+17 50 42.40   ~2QDZ 23.4 RVNEOCP291
     C1CNHF5 1C2026 02 27.31199911 01 45.232+16 53 25.80   ~2R8K 21.59GVNEOCPV06
     C1CNHF5 1C2026 02 27.31733311 01 44.548+16 53 04.88   ~2R8K 21.59GVNEOCPV06
     C1CNHF5 1C2026 02 27.32266511 01 43.860+16 52 43.57   ~2R8K 22.29GVNEOCPV06
     C1CNHF5 1C2026 02 27.32799611 01 43.172+16 52 22.33   ~2R8K 22.01GVNEOCPV06

Station data:
(291) LPL/Spacewatch II  (N31.961669 W111.599905)  US/Arizona.  Observers J.
   V. Scotti, R. S. McMillan. 1.8-m f/2.7 reflector + CCD.
(V00) Kitt Peak-Bok  (N31.963125 W111.600190)  US/Arizona. Measurers T.
   Beuden, V. F. Carvajal, D. Fay, J. B. Fazekas, D. C. Fuls, A. R. Gibbs, A.
   D. Grauer, H. Gröller, J. K. Hogan, R. A. Kowalski, S. M. Larson, G. J.
   Leonard, D. Rankin, R. L. Seaman, F. C. Shelly, K. W. Wierzchoś. 2.25-m
   reflector + 4x4K mosaic CCD.
(V06) Catalina Sky Survey-Kuiper  (N32.416871 W110.732550)  US/Arizona.
   Measurers T. Beuden, V. F. Carvajal, D. Fay, J. B. Fazekas, D. C. Fuls, A.
   R. Gibbs, A. D. Grauer, H. Gröller, J. K. Hogan, R. A. Kowalski, S. M.
   Larson, G. J. Leonard, D. Rankin, R. L. Seaman, F. C. Shelly, K. W.
   Wierzchoś. 1.55-m reflector + CCD.

Orbital elements:  C1CNHF5
   Perihelion 2026 Jan 4.368898 +/- 0.389 TT =  8:51:12.8 (JD 2461044.868898)
Epoch 2026 Feb 27.0 TT = JDT 2461098.5   Earth MOID: 0.0490   Ma: 0.0477
M  17.133125716 +/- 1.4             (J2000 ecliptic)             AutoNEOCP
n   0.319462497 +/- 0.0245          Peri.   97.282363 +/- 0.6
a   2.119285469 +/- 0.109           Node   351.041112 +/- 0.24
e   0.59963932 +/- 0.0243           Incl.    5.578384 +/- 0.11
P   3.08521                H 25.85  G  0.15   U 10.3
q 0.848478559 +/- 0.00839    Q 3.390092379 +/- 0.225
From 11 observations 2026 Feb. 26-27 (22.2 hr); mean residual 0".17
Residuals in arcseconds: 
260226 V00  .18+  .02-    260226 291  .24-  .12+    260227 V06  .06+  .16+    
260226 V00  .29+  .10+    260226 291  .07+  .11+    260227 V06  .03-  .00     
260226 V00  .50-  .13-    260226 291  .20+  .21-    260227 V06  .12-  .10-    
260226 V00  .01-  .02+    260227 V06  .09+  .06-    

Ephemerides (geocentric):
Date (UTC) HH   RA             Dec           delta  r     elong  mag " sig PA
---- --------  ------------   ------------  ------ ------ -----  --- --------
2026 03 19 08  10 47 30.132   +06 19 27.40  .31660 1.3010 162.5 24.7  315  18
2026 03 19 09  10 47 29.863   +06 18 50.29  .31702 1.3013 162.4 24.7  315  18
2026 03 19 10  10 47 29.598   +06 18 13.26  .31744 1.3017 162.4 24.7  316  18
2026 03 19 11  10 47 29.338   +06 17 36.31  .31786 1.3021 162.4 24.7  316  18
2026 03 19 12  10 47 29.082   +06 16 59.44  .31828 1.3024 162.3 24.7  317  18
2026 03 19 13  10 47 28.831   +06 16 22.64  .31869 1.3028 162.3 24.7  317  18
2026 03 19 14  10 47 28.584   +06 15 45.93  .31911 1.3032 162.2 24.7  318  18
2026 03 19 15  10 47 28.341   +06 15 09.29  .31953 1.3035 162.2 24.7  318  18
2026 03 19 16  10 47 28.102   +06 14 32.73  .31995 1.3039 162.2 24.7  319  18
2026 03 19 17  10 47 27.868   +06 13 56.25  .32037 1.3043 162.1 24.7  319  18
2026 03 19 18  10 47 27.638   +06 13 19.85  .32079 1.3046 162.1 24.7  320  18
2026 03 19 19  10 47 27.412   +06 12 43.52  .32121 1.3050 162.0 24.7  320  18
2026 03 19 20  10 47 27.191   +06 12 07.27  .32163 1.3054 162.0 24.8  321  18
2026 03 19 21  10 47 26.974   +06 11 31.10  .32205 1.3057 162.0 24.8  321  18
2026 03 19 22  10 47 26.761   +06 10 55.00  .32247 1.3061 161.9 24.8  322  18
2026 03 19 23  10 47 26.552   +06 10 18.98  .32289 1.3065 161.9 24.8  322  18
2026 03 20 00  10 47 26.348   +06 09 43.04  .32331 1.3069 161.8 24.8  323  18
2026 03 20 01  10 47 26.148   +06 09 07.17  .32373 1.3072 161.8 24.8  323  18
2026 03 20 02  10 47 25.952   +06 08 31.37  .32415 1.3076 161.8 24.8  323  18
2026 03 20 03  10 47 25.761   +06 07 55.65  .32458 1.3080 161.7 24.8  324  18
2026 03 20 04  10 47 25.573   +06 07 20.01  .32500 1.3083 161.7 24.8  324  18
2026 03 20 05  10 47 25.390   +06 06 44.44  .32542 1.3087 161.7 24.8  325  18
2026 03 20 06  10 47 25.211   +06 06 08.94  .32584 1.3091 161.6 24.8  325  18
2026 03 20 07  10 47 25.037   +06 05 33.52  .32626 1.3094 161.6 24.8  326  18
2026 03 20 08  10 47 24.866   +06 04 58.17  .32669 1.3098 161.5 24.8  326  18
2026 03 20 09  10 47 24.700   +06 04 22.89  .32711 1.3102 161.5 24.8  327  18
2026 03 20 10  10 47 24.538   +06 03 47.69  .32753 1.3105 161.5 24.8  327  18
2026 03 20 11  10 47 24.381   +06 03 12.55  .32796 1.3109 161.4 24.8  328  18
2026 03 20 12  10 47 24.227   +06 02 37.50  .32838 1.3113 161.4 24.8  328  18
2026 03 20 13  10 47 24.078   +06 02 02.51  .32880 1.3116 161.3 24.8  329  18
2026 03 20 14  10 47 23.933   +06 01 27.59  .32923 1.3120 161.3 24.8  329  18
2026 03 20 15  10 47 23.792   +06 00 52.75  .32965 1.3124 161.3 24.8  329  18
2026 03 20 16  10 47 23.655   +06 00 17.98  .33007 1.3127 161.2 24.8  330  18
2026 03 20 17  10 47 23.522   +05 59 43.28  .33050 1.3131 161.2 24.8  330  18
2026 03 20 18  10 47 23.394   +05 59 08.65  .33092 1.3135 161.1 24.8  331  18
2026 03 20 19  10 47 23.270   +05 58 34.09  .33135 1.3139 161.1 24.8  331  18
2026 03 20 20  10 47 23.149   +05 57 59.60  .33177 1.3142 161.1 24.9  332  18
2026 03 20 21  10 47 23.033   +05 57 25.18  .33220 1.3146 161.0 24.9  332  18
2026 03 20 22  10 47 22.922   +05 56 50.83  .33262 1.3150 161.0 24.9  333  18
2026 03 20 23  10 47 22.814   +05 56 16.55  .33305 1.3153 161.0 24.9  333  18
2026 03 21 00  10 47 22.710   +05 55 42.34  .33348 1.3157 160.9 24.9  333  18
2026 03 21 01  10 47 22.611   +05 55 08.20  .33390 1.3161 160.9 24.9  334  18
2026 03 21 02  10 47 22.516   +05 54 34.12  .33433 1.3164 160.8 24.9  334  18
2026 03 21 03  10 47 22.425   +05 54 00.12  .33475 1.3168 160.8 24.9  335  18
2026 03 21 04  10 47 22.338   +05 53 26.18  .33518 1.3172 160.8 24.9  335  18
2026 03 21 05  10 47 22.255   +05 52 52.31  .33561 1.3175 160.7 24.9  336  18
2026 03 21 06  10 47 22.176   +05 52 18.51  .33604 1.3179 160.7 24.9  336  18
2026 03 21 07  10 47 22.101   +05 51 44.77  .33646 1.3183 160.6 24.9  336  18